CAPE
0 0 0 0 0 0 0 0 0 0 0 0 1 2 1 3 6 8 9 10 17 28 32 33 39 29 22
0 0 0 0 0 0 0 0 0 0 0 0 0 0 2 5 6 9 12 18 18 21 15 13 21 18 16
0 0 0 0 0 0 0 0 0 0 0 0 0 0 0 1 4 6 6 5 7 8 9 8 6 8 13
0 0 0 0 0 0 0 0 0 0 0 0 0 0 0 0 0 0 0 0 1 3 10 6 4 5 4
0 0 0 0 0 0 0 0 0 0 0 0 0 0 0 0 0 0 0 0 2 5 5 15 19 31 40
0 1 0 0 0 0 1 1 1 0 0 0 0 0 0 0 0 0 0 0 2 6 5 6 17 25 23
0 0 0 0 0 0 2 1 1 0 0 0 0 0 0 0 0 0 0 0 0 7 11 10 6 21 28
0 0 0 0 2 2 1 1 0 0 0 0 0 0 0 0 0 0 0 0 0 3 8 3 4 10 15
0 0 0 0 0 0 0 0 1 0 0 0 0 0 0 0 0 0 0 0 0 0 0 2 7 9 2
0 0 0 0 0 0 0 2 3 1 0 0 0 0 0 0 0 0 0 0 0 0 0 0 1 4 3
0 0 0 0 0 0 0 2 3 3 0 0 0 1 0 0 0 0 0 0 0 0 0 0 0 2 0
0 0 0 0 0 0 0 0 1 2 0 2 1 2 2 2 1 0 0 0 0 0 0 0 0 0 1
0 0 0 0 0 0 0 0 0 0 0 0 1 1 2 2 1 0 1 0 0 0 0 0 0 0 1
1 0 1 0 0 0 0 0 0 0 0 0 0 0 1 2 2 2 0 1 0 0 0 1 1 0 2
1 1 0 0 0 0 1 2 3 0 0 0 0 0 1 1 1 1 0 0 0 0 1 2 0 1 0
0 2 0 0 0 0 1 2 2 0 1 0 0 1 0 0 0 0 1 1 0 0 0 1 0 0 0
1 0 1 0 1 0 0 1 2 2 1 1 0 1 1 1 0 0 0 0 1 1 1 1 2 0 0
CIN
-0 -0 -0 -0 -0 -0 -0 -0 -0 -0 -0 -0 -1 -1 -1 -1 -1 -0 -0 -1 -1 -0 -0 -1 -0 -1 -0
-0 -0 -0 -0 -0 -0 -0 -0 -0 -0 -0 -0 -0 -0 -1 -0 -1 -1 -1 -1 -0 -0 -2 -1 -1 -1 -1
-0 -0 -0 -0 -0 -0 -0 -0 -0 -0 -0 -0 -0 -0 -1 -1 -1 -0 -1 -1 -1 -1 -1 -1 -1 -0 -0
-0 -0 -0 -0 -0 -0 -0 -0 -0 -0 -0 -0 -0 -0 -0 -0 -0 -0 -0 -0 -1 -0 -0 -0 -0 -0 -1
-0 -0 -0 -0 -0 -0 -0 -0 -0 -0 -0 -0 -0 -0 -0 -0 -0 -0 -0 -0 -0 -0 -1 -1 -1 -0 -1
-0 -0 -0 -0 -0 -0 -1 -0 -0 -0 -0 -0 -0 -0 -0 -0 -0 -0 -0 -0 -1 -0 -1 -2 -1 -0 -1
-0 -0 -0 -0 -0 -0 -0 -0 -0 -0 -0 -0 -0 -0 -0 -0 -0 -0 -0 -0 -0 -1 -0 -1 -1 -1 -0
-0 -0 -0 -1 -0 -1 -0 -0 -0 -0 -0 -0 -0 -0 -0 -0 -0 -0 -0 -0 -0 -0 -0 -1 -2 -1 -0
-0 -0 -0 -0 -0 -0 -0 -0 -0 -0 -0 -0 -0 -0 -0 -0 -0 -0 -0 -0 -0 -0 -0 -0 -0 -0 -0
-0 -0 -0 -0 -0 -0 -0 -0 -0 -0 -0 -0 -0 -0 -0 -0 -0 -0 -0 -0 -0 -0 -0 -0 -0 -1 -0
-0 -0 -0 -0 -0 -0 -0 -0 -0 -0 -0 -0 -0 -0 -0 -0 -0 -0 -0 -0 -0 -0 -0 -0 -0 -0 -0
-0 -0 -0 -0 -0 -0 -0 -0 -0 -0 -0 -0 -0 -0 -0 -0 -0 -0 -0 -0 -0 -0 -0 -0 -0 -0 -0
-0 -0 -0 -0 -0 -0 -0 -0 -0 -0 -0 -0 -0 -0 -0 -0 -0 -0 -0 -0 -0 -0 -0 -0 -0 -0 -0
-0 -0 -0 -0 -0 -0 -0 -0 -0 -0 -0 -0 -0 -0 -0 -0 -0 -0 -0 -0 -0 -0 -0 -0 -0 -0 -0
-0 -0 -0 -0 -0 -0 -0 -0 -0 -0 -0 -0 -0 -0 -0 -0 -0 -0 -0 -0 -0 -0 -0 -0 -0 -0 -0
-0 -0 -0 -0 -0 -0 -0 -0 -0 -0 -0 -0 -0 -0 -0 -0 -0 -0 -0 -0 -0 -0 -0 -0 -0 -0 -0
-0 -0 -0 -0 -0 -0 -0 -0 -0 -0 -0 -0 -0 -0 -0 -0 -0 -0 -0 -0 -0 -0 -0 -0 -0 -0 -0
Wind_Speed
28 29 32 34 35 36 37 38 38 40 43 43 43 43 43 43 44 45 45 46 46 46 46 47 46 47 47
32 32 33 34 37 38 37 37 39 40 42 42 43 43 42 43 43 43 43 44 44 45 46 47 46 46 46
35 32 34 35 38 37 37 38 38 39 40 41 39 39 40 40 42 42 42 43 43 43 43 42 41 40 41
34 36 36 36 37 40 43 40 41 40 39 37 37 37 38 39 39 40 40 41 40 40 39 39 39 39 40
37 38 40 40 43 42 43 43 41 39 37 35 37 37 36 37 37 36 36 37 38 40 41 42 43 45 45
38 39 40 41 41 41 43 44 45 34 37 40 37 37 36 33 33 33 34 36 37 39 42 44 46 46 46
39 40 40 39 40 40 39 39 39 39 40 41 37 36 33 32 30 31 31 31 32 34 37 40 41 43 45
34 35 34 34 34 36 37 37 36 35 34 36 36 34 34 33 29 23 21 22 18 16 16 30 41 44 46
32 33 34 35 34 34 35 36 37 36 34 28 33 36 34 31 26 22 18 17 16 16 17 17 17 42 43
32 33 32 32 31 28 29 32 34 35 30 29 34 37 35 29 25 27 20 15 14 14 16 20 24 28 42
32 31 30 29 27 27 26 25 26 24 25 28 29 30 28 31 30 27 23 17 13 12 14 17 18 21 31
29 28 28 27 27 27 25 22 20 19 21 21 23 24 23 20 21 28 26 22 14 10 8 8 11 17 27
26 26 24 24 24 25 25 22 21 19 18 17 17 18 18 16 17 19 24 24 13 11 12 9 9 10 14
23 23 24 25 25 27 28 29 28 26 25 19 16 17 17 15 14 15 16 21 22 17 15 14 11 9 9
26 26 25 27 27 25 24 26 25 24 26 24 21 17 15 16 14 13 11 12 12 12 15 14 16 9 8
24 23 24 27 26 27 26 26 25 25 21 21 21 22 21 19 12 14 12 12 14 15 15 12 12 13 9
21 20 22 25 25 24 26 25 24 25 24 22 21 22 20 20 23 15 11 11 11 11 10 9 10 10 8
Wind_Direction
316 318 319 319 320 321 322 322 322 321 320 319 318 316 314 313 311 309 306 305 303 300 298 296 294 293 292
316 318 319 321 321 321 322 323 322 323 322 320 319 317 316 315 313 311 309 306 304 302 299 296 294 293 291
315 320 321 323 322 324 324 324 325 324 323 322 322 320 319 317 315 313 311 308 305 303 300 298 296 294 292
318 319 322 325 325 324 324 325 325 326 325 325 324 323 321 320 318 314 311 309 306 303 301 299 296 293 290
319 321 322 324 323 325 323 325 327 328 328 330 329 327 326 323 321 319 316 312 308 304 299 295 292 288 284
322 322 322 323 324 325 324 326 326 333 331 327 329 327 327 328 327 324 319 316 312 306 301 295 290 286 283
322 322 322 324 324 325 327 327 327 328 328 327 330 329 332 332 330 328 325 324 320 314 306 300 293 287 284
326 325 326 328 328 327 327 327 328 330 333 330 335 334 335 334 333 332 332 333 325 311 306 310 298 291 285
329 329 328 328 330 330 329 331 332 334 336 336 339 336 338 337 341 341 336 330 314 291 274 266 264 292 289
333 333 333 333 335 337 337 335 336 337 346 342 340 341 342 345 347 339 337 326 306 290 274 262 254 249 277
335 336 338 340 343 344 344 343 340 338 338 342 341 341 340 339 342 342 339 328 316 299 274 259 252 244 250
342 343 345 346 348 348 348 346 341 331 332 338 340 340 337 327 329 342 343 338 329 309 301 294 265 248 243
351 351 354 354 353 353 352 351 347 343 341 340 337 338 336 318 308 325 341 345 331 314 332 317 295 263 249
1 1 358 356 356 356 353 353 352 353 356 353 348 343 337 329 320 306 335 347 346 341 334 329 311 287 262
359 357 359 357 359 1 360 358 356 355 355 357 356 348 339 334 326 328 316 333 337 334 344 332 335 311 269
5 6 3 360 1 359 360 359 357 357 355 356 355 355 356 353 335 333 336 329 339 347 350 339 328 339 317
12 11 7 2 2 2 1 1 359 358 356 356 357 358 355 352 357 358 329 320 302 309 335 324 308 313 335